Whitefield, NH

4:36 AM EST on February 20, 2017 (GMT -0500)
Mount Washington Regional

Weather History for KHIE - August, 2013

Change the Weather History Date:

Thursday, August 22, 2013

  Actual Average Record
Temperature  
Mean Temperature 68 °F -  
Max Temperature 84 °F 74 °F 84 °F (2013)
Min Temperature 53 °F 46 °F 35 °F (2007)
Cooling Degree Days 2    
Growing Degree Days 18 (Base 50)    
Moisture  
Dew Point 59 °F    
Average Humidity 74    
Maximum Humidity 94    
Minimum Humidity 46    
Precipitation  
Precipitation 0.04 in - - ()
Sea Level Pressure  
Sea Level Pressure 29.92 in    
Wind  
Wind Speed 2 mph (WSW)    
Max Wind Speed 10 mph    
Max Gust Speed -    
Visibility 7 miles    
Events Rain    
Averages and records for this station are not official NWS values.
T = Trace of Precipitation, MM = Missing Value Source: NWS Daily Summary

Daily Weather History Graph

Daily Weather History Graph

Search for Another Location

Airport or City:

Trip Planner

Search our weather history database for the weather conditions in past years. The results will help you decide how hot, cold, wet, or windy it might be!

Date:

Astronomy

Aug. 22, 2013 Rise Set
Actual Time 5:57 AM EDT 7:39 PM EDT
Civil Twilight 5:26 AM EDT 8:10 PM EDT
Nautical Twilight 4:49 AM EDT 8:47 PM EDT
Astronomical Twilight 4:08 AM EDT 9:27 PM EDT
Moon 8:14 PM EDT (8/22) 7:49 AM EDT (8/22)
Length of Visible Light 14h 43m
Length of Day
13h 41m
Waning Gibbous, 97% of the Moon is Illuminated
Aug 22
Waning Gibbous
Aug 28
Last Quarter
Sep 5
New
Sep 12
First Quarter
Sep 19
Full

Hourly Weather History & Observations

Time (EDT) Temp. Heat Index Dew Point Humidity Pressure Visibility Wind Dir Wind Speed Gust Speed Precip Events Conditions
12:52 AM 61.0 °F - 57.0 °F 87% 30.03 in 6.0 mi Calm Calm - N/A   Clear
1:52 AM 59.0 °F - 55.0 °F 87% 30.03 in 5.0 mi Calm Calm - N/A   Clear
2:52 AM 57.0 °F - 53.1 °F 87% 30.02 in 5.0 mi Calm Calm - N/A   Clear
3:52 AM 55.9 °F - 53.1 °F 90% 30.01 in 5.0 mi Calm Calm - N/A   Clear
4:52 AM 55.9 °F - 53.1 °F 90% 29.99 in 5.0 mi Calm Calm - N/A   Clear
5:52 AM 55.0 °F - 52.0 °F 89% 29.98 in 5.0 mi Calm Calm - N/A   Clear
6:05 AM 53.6 °F - 51.8 °F 94% 29.99 in 1.8 mi Calm Calm - N/A   Clear
6:19 AM 55.4 °F - 51.8 °F 88% 29.99 in 2.5 mi Calm Calm - N/A   Clear
6:27 AM 55.4 °F - 51.8 °F 88% 29.99 in 4.0 mi Calm Calm - N/A   Clear
6:52 AM 55.9 °F - 53.1 °F 90% 29.98 in 5.0 mi Calm Calm - N/A   Clear
7:52 AM 62.1 °F - 57.9 °F 86% 29.98 in 4.0 mi Calm Calm - N/A   Clear
8:52 AM 71.1 °F - 62.1 °F 73% 29.98 in 7.0 mi Calm Calm - N/A   Clear
9:52 AM 75.9 °F - 61.0 °F 60% 29.96 in 10.0 mi SW 4.6 mph - N/A   Clear
10:52 AM 79.0 °F - 62.1 °F 56% 29.95 in 10.0 mi WSW 5.8 mph - N/A   Clear
11:52 AM 81.0 °F 81.6 °F 60.1 °F 49% 29.94 in 10.0 mi Variable 6.9 mph - N/A   Clear
12:52 PM 82.0 °F 82.7 °F 61.0 °F 49% 29.92 in 10.0 mi WSW 5.8 mph - N/A   Clear
1:52 PM 82.9 °F 83.7 °F 62.1 °F 49% 29.88 in 10.0 mi West 6.9 mph - N/A   Clear
2:52 PM 82.9 °F 83.2 °F 60.1 °F 46% 29.86 in 10.0 mi WSW 5.8 mph - N/A   Partly Cloudy
3:52 PM 82.9 °F 83.2 °F 60.1 °F 46% 29.85 in 10.0 mi SW 10.4 mph - N/A   Partly Cloudy
4:52 PM 82.9 °F 83.2 °F 60.1 °F 46% 29.82 in 10.0 mi WSW 8.1 mph - N/A   Clear
5:52 PM 80.1 °F 80.7 °F 59.0 °F 48% 29.83 in 10.0 mi WSW 5.8 mph - N/A   Partly Cloudy
6:52 PM 75.9 °F - 62.1 °F 62% 29.82 in 10.0 mi WNW 10.4 mph - N/A   Partly Cloudy
7:52 PM 71.1 °F - 62.1 °F 73% 29.83 in 10.0 mi SSW 5.8 mph - 0.00 in   Mostly Cloudy
8:52 PM 70.0 °F - 63.0 °F 78% 29.86 in 8.0 mi WSW 3.5 mph - N/A   Overcast
9:52 PM 69.1 °F - 63.0 °F 81% 29.85 in 9.0 mi Calm Calm - N/A   Overcast
10:52 PM 68.0 °F - 63.0 °F 84% 29.85 in 5.0 mi SW 4.6 mph - 0.00 in Rain Light Rain
11:01 PM 68.0 °F - 62.6 °F 83% 29.86 in 6.0 mi Variable 3.5 mph - 0.01 in Rain Light Rain
11:19 PM 66.2 °F - 64.4 °F 94% 29.86 in 7.0 mi SW 3.5 mph - 0.01 in Rain Light Rain
11:52 PM 66.9 °F - 64.0 °F 90% 29.86 in 3.0 mi SSW 3.5 mph - 0.04 in Rain Rain